SKYNET 4C

Last updated on Sun Apr 12 2026 00:02:50 GMT+0000 (Coordinated Universal Time)

1 20776U 90079A 26100.81427490 .00000132 00000+0 00000+0 0 9995 2 20776 13.3616 350.2708 0002879 30.5437 144.7433 1.00271779130214
UTC large
Height (km)
Speed (km/s)
/
Latitude / Longitude
Inclination (degrees)
Orbital Period (minutes)
Azimuth
Elevation
Range (km)
Doppler Factor

Next 0 passes for location: London (51.5072 / 0.1276)

Sorry there are no passes over London.
SKYNET 4C